Weather History for Muscatine, IA

Change the Weather History Date:

Wednesday, February 29, 2012

  Actual Average Record
Temperature  
Mean Temperature 44 °F -  
Max Temperature 53 °F - 67 °F (1972)
Min Temperature 35 °F - -1 °F (1960)
Degree Days  
Heating Degree Days 21    
Moisture  
Dew Point 33 °F    
Average Humidity 66    
Maximum Humidity 93    
Minimum Humidity 43    
Precipitation  
Precipitation 0.13 in - - ()
Sea Level Pressure  
Sea Level Pressure 29.53 in    
Wind  
Wind Speed 19 mph (SW)    
Max Wind Speed 34 mph    
Max Gust Speed 45 mph    
Visibility 9 miles    
Events Rain , Snow    
Averages and records for this station are not official NWS values.
T = Trace of Precipitation, MM = Missing Value Source: NWS Daily Summary

Daily Weather History Graph

Daily Weather History Graph

Search for Another Location

Airport:

Trip Planner

Search our weather history database for the weather conditions in past years. The results will help you decide how hot, cold, wet, or windy it might be!

Date:

Astronomy

Feb. 29, 2012 Rise Set
Actual Time 6:39 AM CST 5:54 PM CST
Civil Twilight 6:12 AM CST 6:22 PM CST
Nautical Twilight 5:40 AM CST 6:54 PM CST
Astronomical Twilight 5:08 AM CST 7:26 PM CST
Moon 10:25 AM CST (2/29) 12:47 AM CST (2/29)
Length of Visible Light 12h 10m
Length of Day
11h 14m
Waxing Crescent, 47% of the Moon is Illuminated
Feb 29
Waxing Crescent
Feb 29
First Quarter
Mar 8
Full
Mar 14
Last Quarter
Mar 22
New

Hourly Weather History & Observations

Time (CST) Temp. Windchill Dew Point Humidity Pressure Visibility Wind Dir Wind Speed Gust Speed Precip Events Conditions
12:15 AM 48.2 °F - 42.8 °F 82% 29.54 in 10.0 mi SE 11.5 mph 18.4 mph N/A   Overcast
12:35 AM 48.2 °F - 44.6 °F 87% 29.53 in 10.0 mi SE 13.8 mph 19.6 mph N/A   Overcast
12:55 AM 48.2 °F - 42.8 °F 82% 29.51 in 10.0 mi SE 11.5 mph 16.1 mph N/A   Overcast
1:15 AM 48.2 °F - 44.6 °F 87% 29.50 in 5.0 mi SSE 10.4 mph - 0.02 in Rain Rain
1:35 AM 48.2 °F - 44.6 °F 87% 29.49 in 7.0 mi SSE 8.1 mph 16.1 mph 0.12 in Rain Heavy Rain
2:15 AM 51.8 °F - 46.4 °F 82% 29.43 in 7.0 mi SSE 11.5 mph 23.0 mph 0.01 in   Scattered Clouds
2:35 AM 50.0 °F - 46.4 °F 87% 29.41 in 5.0 mi SSE 10.4 mph - 0.01 in   Clear
2:55 AM 48.2 °F - 46.4 °F 93% 29.40 in 5.0 mi South 10.4 mph - 0.01 in   Clear
3:15 AM 48.2 °F - 46.4 °F 93% 29.40 in 5.0 mi South 11.5 mph - N/A   Clear
3:35 AM 51.8 °F - 48.2 °F 88% 29.40 in 10.0 mi South 19.6 mph - N/A   Clear
3:55 AM 53.6 °F - 48.2 °F 82% 29.40 in 10.0 mi SSW 17.3 mph - N/A   Clear
4:15 AM 53.6 °F - 48.2 °F 82% 29.41 in 10.0 mi SSW 21.9 mph 28.8 mph N/A   Clear
4:35 AM 53.6 °F - 48.2 °F 82% 29.41 in 10.0 mi SSW 19.6 mph 27.6 mph N/A   Clear
4:55 AM 51.8 °F - 46.4 °F 82% 29.42 in 10.0 mi SSW 20.7 mph 26.5 mph N/A   Clear
5:15 AM 51.8 °F - 44.6 °F 76% 29.43 in 10.0 mi SW 24.2 mph 32.2 mph N/A   Clear
5:35 AM 51.8 °F - 37.4 °F 58% 29.44 in 10.0 mi SW 23.0 mph 32.2 mph N/A   Clear
5:55 AM 50.0 °F - 37.4 °F 62% 29.44 in 10.0 mi SW 17.3 mph - N/A   Clear
6:15 AM 48.2 °F - 37.4 °F 66% 29.45 in 10.0 mi SW 18.4 mph 25.3 mph N/A   Clear
6:35 AM 48.2 °F - 35.6 °F 62% 29.46 in 10.0 mi SW 21.9 mph 29.9 mph N/A   Clear
6:55 AM 46.4 °F 37.9 °F 32.0 °F 57% 29.48 in 10.0 mi SW 25.3 mph 34.5 mph N/A   Clear
7:15 AM 46.4 °F 37.5 °F 30.2 °F 53% 29.49 in 10.0 mi WSW 27.6 mph 36.8 mph N/A   Clear
7:35 AM 44.6 °F 36.9 °F 30.2 °F 57% 29.49 in 10.0 mi SW 18.4 mph 28.8 mph N/A   Clear
7:55 AM 44.6 °F 36.1 °F 30.2 °F 57% 29.50 in 10.0 mi SW 21.9 mph 27.6 mph N/A   Clear
8:15 AM 44.6 °F 35.7 °F 30.2 °F 57% 29.50 in 10.0 mi SW 24.2 mph 34.5 mph N/A   Clear
8:35 AM 44.6 °F 35.9 °F 28.4 °F 53% 29.50 in 10.0 mi SW 23.0 mph 34.5 mph N/A   Clear
8:55 AM 44.6 °F 35.9 °F 30.2 °F 57% 29.50 in 10.0 mi SW 23.0 mph 41.4 mph N/A   Clear
9:15 AM 46.4 °F 38.1 °F 30.2 °F 53% 29.50 in 10.0 mi SW 24.2 mph 35.7 mph N/A   Clear
9:55 AM 46.4 °F 37.2 °F 28.4 °F 50% 29.50 in 10.0 mi SW 29.9 mph 39.1 mph N/A   Clear
10:15 AM 46.4 °F 38.1 °F 30.2 °F 53% 29.49 in 10.0 mi SW 24.2 mph 35.7 mph N/A   Clear
10:35 AM 48.2 °F - 30.2 °F 50% 29.49 in 10.0 mi SW 25.3 mph 36.8 mph N/A   Scattered Clouds
10:55 AM 48.2 °F - 28.4 °F 46% 29.49 in 10.0 mi SW 26.5 mph 38.0 mph N/A   Scattered Clouds
11:35 AM 48.2 °F - 26.6 °F 43% 29.50 in 10.0 mi WSW 31.1 mph 38.0 mph N/A   Overcast
12:15 PM 46.4 °F 37.4 °F 26.6 °F 46% 29.50 in 10.0 mi WSW 28.8 mph 35.7 mph N/A   Overcast
12:35 PM 46.4 °F 37.9 °F 26.6 °F 46% 29.50 in 10.0 mi WSW 25.3 mph 40.3 mph N/A   Overcast
12:55 PM 44.6 °F 34.1 °F 26.6 °F 49% 29.51 in 10.0 mi WSW 34.5 mph 41.4 mph N/A   Overcast
1:15 PM 44.6 °F 35.5 °F 26.6 °F 49% 29.50 in 10.0 mi West 25.3 mph 35.7 mph N/A   Overcast
1:35 PM 44.6 °F 34.7 °F 26.6 °F 49% 29.51 in 10.0 mi WSW 29.9 mph 38.0 mph N/A   Overcast
1:55 PM 44.6 °F 34.9 °F 24.8 °F 46% 29.51 in 10.0 mi WSW 28.8 mph 36.8 mph N/A   Overcast
2:15 PM 42.8 °F 32.9 °F 24.8 °F 49% 29.52 in 10.0 mi West 26.5 mph 39.1 mph N/A   Overcast
2:35 PM 41.0 °F 30.5 °F 26.6 °F 57% 29.53 in 10.0 mi West 26.5 mph 39.1 mph N/A   Overcast
2:55 PM 41.0 °F 29.5 °F 24.8 °F 53% 29.56 in 10.0 mi WSW 32.2 mph 41.4 mph N/A   Overcast
3:15 PM 39.2 °F 27.2 °F 24.8 °F 56% 29.55 in 10.0 mi West 31.1 mph 44.9 mph N/A   Overcast
3:35 PM 39.2 °F 27.6 °F 24.8 °F 56% 29.57 in 10.0 mi WSW 28.8 mph 39.1 mph N/A   Overcast
3:55 PM 39.2 °F 28.7 °F 24.8 °F 56% 29.58 in 10.0 mi West 23.0 mph 28.8 mph N/A   Overcast
4:15 PM 39.2 °F 29.3 °F 26.6 °F 61% 29.59 in 7.0 mi West 20.7 mph 29.9 mph N/A Rain Light Rain
4:35 PM 35.6 °F 22.5 °F 30.2 °F 81% 29.60 in 2.0 mi West 29.9 mph 36.8 mph N/A Snow Light Snow
4:55 PM 35.6 °F 24.2 °F 30.2 °F 81% 29.62 in 2.5 mi West 21.9 mph 33.4 mph N/A Snow Light Snow
5:15 PM 35.6 °F 24.5 °F 30.2 °F 81% 29.62 in 5.0 mi West 20.7 mph 28.8 mph N/A Snow Light Snow
5:35 PM 35.6 °F 23.7 °F 30.2 °F 81% 29.63 in 10.0 mi WSW 24.2 mph 29.9 mph N/A   Overcast
5:55 PM 37.4 °F 26.1 °F 28.4 °F 70% 29.64 in 10.0 mi West 24.2 mph 32.2 mph N/A   Overcast
6:15 PM 35.6 °F 24.0 °F 28.4 °F 75% 29.64 in 10.0 mi West 23.0 mph 32.2 mph N/A   Overcast
6:35 PM 37.4 °F 26.4 °F 28.4 °F 70% 29.66 in 10.0 mi West 23.0 mph 33.4 mph N/A   Overcast
6:55 PM 37.4 °F 25.9 °F 26.6 °F 65% 29.66 in 10.0 mi West 25.3 mph 32.2 mph N/A   Overcast
7:15 PM 37.4 °F 25.9 °F 26.6 °F 65% 29.66 in 10.0 mi West 25.3 mph 34.5 mph N/A   Overcast
7:35 PM 37.4 °F 25.9 °F 26.6 °F 65% 29.67 in 10.0 mi West 25.3 mph 41.4 mph N/A   Overcast
7:55 PM 37.4 °F 25.6 °F 26.6 °F 65% 29.68 in 10.0 mi West 26.5 mph 33.4 mph N/A   Overcast
8:15 PM 37.4 °F 25.2 °F 26.6 °F 65% 29.69 in 10.0 mi West 28.8 mph 34.5 mph N/A   Overcast
8:35 PM 37.4 °F 25.6 °F 26.6 °F 65% 29.69 in 10.0 mi West 26.5 mph 38.0 mph N/A   Overcast
8:55 PM 37.4 °F 26.9 °F 26.6 °F 65% 29.71 in 10.0 mi West 20.7 mph 34.5 mph N/A   Overcast
9:15 PM 37.4 °F 26.6 °F 26.6 °F 65% 29.72 in 10.0 mi West 21.9 mph 32.2 mph N/A   Overcast
9:35 PM 37.4 °F 25.6 °F 26.6 °F 65% 29.73 in 10.0 mi West 26.5 mph 32.2 mph N/A   Overcast
9:55 PM 37.4 °F 26.9 °F 26.6 °F 65% 29.73 in 10.0 mi West 20.7 mph 29.9 mph N/A   Overcast
10:15 PM 37.4 °F 27.2 °F 26.6 °F 65% 29.74 in 10.0 mi West 19.6 mph 31.1 mph N/A   Overcast
10:35 PM 37.4 °F 27.2 °F 26.6 °F 65% 29.75 in 10.0 mi West 19.6 mph 28.8 mph N/A   Overcast
10:55 PM 37.4 °F 26.6 °F 28.4 °F 70% 29.75 in 10.0 mi West 21.9 mph 26.5 mph N/A   Overcast
11:15 PM 37.4 °F 27.5 °F 28.4 °F 70% 29.75 in 10.0 mi West 18.4 mph 33.4 mph N/A   Overcast
11:35 PM 37.4 °F 26.9 °F 28.4 °F 70% 29.75 in 10.0 mi West 20.7 mph 31.1 mph N/A   Overcast
11:55 PM 35.6 °F 24.8 °F 28.4 °F 75% 29.76 in 10.0 mi West 19.6 mph 26.5 mph N/A   Overcast